Content
SEND FEEDBACK

Daily
Averages
Monthly
Summary
Australia

BURNIE, TASMANIA


Home > Oceania > Australia > Tasmania
Elevation: 32 feet     Latitude: 41 04S     Longitude: 145 56E

WEATHER
 
SELECT A DAY
Number of Records: 177,460;   Date Range: 10/22/03 - 4/14/14
 
SHARE

PRINT THIS DATA

[ ← Previous Day ]
WEATHER ALMANAC - FEBRUARY 13, 2013
[ Next Day → ]
[ °C ]   °F
Weather ElementAverageHighLow
Temperature66.6 °F78.8 °F (3:30 pm)57.2 °F (6:00 am)
Dewpoint50.7 °F53.6 °F (12:30 am)46.4 °F (2:30 pm)
Humidity59.3 %82 % (3:30 am)32 % (3:30 pm)
Barometer30.23 in30.30 in (8:30 am)30.15 in (4:30 pm)
Wind Speed9 mph17.3 mph (7:00 pm)
Weather ElementAverage
Visibility6.2 mi
Wind DirectionNNW (330 °)

Weather ElementTotal
Precipitation---
Cooling Degree Days3 (Base 65)
Growing Degree Days18 (Base 50)
Averaged from 47 records on February 13, 2013
WEATHER CONDITIONS BREAKOUT
WIND DIRECTION BREAKOUT
WEATHER BY HOUR - FEBRUARY 13, 2013
[ °C ]   °F
Local TimeTemperatureDewpointHumidityBarometerVisibilityWind DirectionWind SpeedGust SpeedPrecipitationEventsConditions
12:30 AM60.8 °F53.6 °F77 %30.27 in6.2 miNW (310°)9.2 mphOvercast
1:00 AM60.8 °F53.6 °F77 %30.27 in6.2 miNW (310°)9.2 mphOvercast
1:30 AM60.8 °F53.6 °F77 %30.27 in6.2 miNW (310°)8.1 mphOvercast
2:00 AM60.8 °F53.6 °F77 %30.27 in6.2 miNW (310°)5.8 mphOvercast
2:30 AM60.8 °F53.6 °F77 %30.27 in6.2 miNW (320°)5.8 mphOvercast
3:00 AM60.8 °F53.6 °F77 %30.27 in6.2 miNorth (350°)5.8 mphOvercast
3:30 AM59.0 °F53.6 °F82 %30.27 in6.2 miNNW (340°)5.8 mphOvercast
4:00 AM59.0 °F51.8 °F77 %30.27 in6.2 miNNW (330°)6.9 mphOvercast
4:30 AM59.0 °F51.8 °F77 %30.27 in6.2 miNNW (330°)4.6 mphOvercast
5:00 AM59.0 °F53.6 °F82 %30.27 in6.2 miNorth (350°)4.6 mphOvercast
5:30 AM59.0 °F51.8 °F77 %30.27 in6.2 miNorth (350°)1.2 mphOvercast
6:00 AM57.2 °F51.8 °F82 %30.27 in6.2 miNorth (360°)3.5 mphOvercast
6:30 AM59.0 °F53.6 °F82 %30.27 in6.2 miNNW (330°)3.5 mphOvercast
7:00 AM59.0 °F53.6 °F82 %30.27 in6.2 miNorth (350°)4.6 mphOvercast
7:30 AM59.0 °F53.6 °F82 %30.27 in6.2 miNNW (330°)4.6 mphOvercast
8:00 AM60.8 °F53.6 °F77 %30.27 in6.2 miNW (320°)6.9 mphOvercast
8:30 AM62.6 °F51.8 °F68 %30.30 in6.2 miNNW (330°)9.2 mphOvercast
9:00 AM64.4 °F51.8 °F64 %30.30 in6.2 miNNW (340°)9.2 mphOvercast
9:30 AM64.4 °F51.8 °F64 %30.30 in6.2 miNorth (350°)10.4 mphOvercast
10:00 AM68.0 °F53.6 °F60 %30.30 in6.2 miNNW (340°)12.7 mphScattered Clouds
10:30 AM68.0 °F50.0 °F52 %30.27 in6.2 miNNW (340°)11.5 mph
11:00 AM71.6 °F51.8 °F50 %30.27 in6.2 miNNW (340°)11.5 mphScattered Clouds
11:30 AM69.8 °F51.8 °F53 %30.27 in6.2 miNNW (330°)11.5 mphMostly Cloudy
12:00 PM69.8 °F50.0 °F49 %30.27 in6.2 miNNW (330°)11.5 mphScattered Clouds
12:30 PM73.4 °F50.0 °F44 %30.24 in6.2 miNorth (350°)12.7 mphScattered Clouds
1:00 PM73.4 °F50.0 °F44 %30.24 in6.2 miNNW (330°)11.5 mphScattered Clouds
1:30 PM75.2 °F48.2 °F38 %30.21 in6.2 miNNW (330°)11.5 mphScattered Clouds
2:00 PM75.2 °F50.0 °F41 %30.21 in6.2 miNW (320°)12.7 mphScattered Clouds
2:30 PM75.2 °F46.4 °F36 %30.21 in6.2 miNNW (340°)9.2 mphScattered Clouds
3:00 PM77.0 °F46.4 °F34 %30.18 in6.2 miNW (310°)10.4 mphScattered Clouds
3:30 PM78.8 °F46.4 °F32 %30.18 in6.2 miNNW (330°)6.9 mph
4:00 PM77.0 °F46.4 °F34 %30.18 in6.2 miNorth (360°)9.2 mph
4:30 PM77.0 °F46.4 °F34 %30.15 in6.2 miNNW (340°)5.8 mph
5:00 PM77.0 °F46.4 °F34 %30.15 in6.2 miNNW (330°)13.8 mph
5:30 PM77.0 °F48.2 °F36 %30.15 in6.2 miNNW (340°)11.5 mph
6:00 PM75.2 °F48.2 °F38 %30.15 in6.2 miNNW (340°)16.1 mph
6:30 PM73.4 °F50.0 °F44 %30.15 in6.2 miNNW (330°)15.0 mph
7:00 PM71.6 °F50.0 °F46 %30.15 in6.2 miNNW (330°)17.3 mph
7:30 PM69.8 °F50.0 °F49 %30.15 in6.2 miNNW (330°)15.0 mph
8:00 PM68.0 °F50.0 °F52 %30.18 in6.2 miNNW (340°)13.8 mph
8:30 PM64.4 °F50.0 °F59 %30.18 in6.2 miNNW (340°)10.4 mph
9:00 PM62.6 °F50.0 °F63 %30.21 in6.2 miNNW (340°)10.4 mph
9:30 PM60.8 °F50.0 °F68 %30.21 in6.2 miNNW (340°)8.1 mph
10:00 PM62.6 °F50.0 °F63 %30.21 in6.2 miNW (320°)8.1 mphMostly Cloudy
10:30 PM62.6 °F50.0 °F63 %30.24 in6.2 miWest (270°)5.8 mphMostly Cloudy
11:00 PM64.4 °F48.2 °F56 %30.24 in6.2 miWest (260°)5.8 mphOvercast
11:30 PM64.4 °F48.2 °F56 %30.24 in6.2 miWNW (290°)3.5 mphOvercast
Hourly data recorded from YDPO, located 26.48 miles away from Burnie, Tasmania







STORIES FROM OUR PARTNERS